sat.trackr.live / text

‹ back to catalog

STARLINK-2505

NORAD 48411 · 2021-038BL

PAYLOAD ACTIVE UNKNOWN

§ Identity

Operator
Country
US
Launch date
2021-05-04
Launch site
AFETR
Launch vehicle
Mass (kg)
RCS (m²)

Purposes: comms

External: N2YO · Heavens-Above · Gunter

§ Orbital elements

Epoch: 2026-05-24T20:07:07.636512Z

Period
94.01 min
Inclination
53.1593°
Eccentricity
0.0001122
Mean motion
15.31713976 rev/d
Perigee alt
469.9 km
Apogee alt
471.5 km
Semi-major
6,848.8 km
B*
2.8818e-4
RAAN
299.6879°
Arg perigee
80.8891°
Mean anomaly
279.2237°
Rev number
27,964

§ Raw data

STARLINK-25051 48411U 21038BL  26144.83828283  .00008592  00000+0  28818-3 0  99942 48411  53.1593 299.6879 0001122  80.8891 279.2237 15.31713976279649

JSON: /api/v1/satellites/48411 · /tle

For live sub-satellite position, see the globe view (requires WebGL).

§ Visibility from observer

Set your observer location to see the next 7 days of passes ≥ 10°. The values pass through the URL so the page stays shareable.

No JS? Fill the form by hand. The geolocation button needs JavaScript.